Regional Weather Roundup
Issued by NWS

Home | Current Version | Previous Version | Graphics & Text | Print | Product List | Glossary On
Versions: 1 2 3 4 5 6 7 8 9 10 11 12 13 14 15 16 17 18 19 20 21 22 23 24 25 26 27 28 29 30 31 32 33 34 35 36 37 38 39 40 41 42 43 44 45 46 47 48 49 50
000
ASUS43 KDMX 181807
RWRIA

WEATHER ROUNDUP FOR IOWA
NATIONAL WEATHER SERVICE DES MOINES IA
1200 PM CST THU DEC 18 2014

NOTE: "FAIR" INDICATES FEW OR NO CLOUDS BELOW 12,000 FEET WITH NO
SIGNIFICANT WEATHER AND/OR OBSTRUCTIONS TO VISIBILITY.

* - THESE STATIONS ARE NOT NWS STATIONS...THUS NOT UNDER NWS
QUALITY CONTROL.  THEY ALSO DO NOT REPORT WEATHER SUCH
AS PRECIPITATION OR FOG.

IAZ001>003-012>014-020>022-031>034-043>046-181900-
   NORTHWEST IOWA

CITY           SKY/WX    TMP DP  RH WIND       PRES   REMARKS
CARROLL *      CLOUDY    27  21  80 CALM      30.23F
CHEROKEE *     CLOUDY    25  22  87 SE5       30.24F WCI  19
DENISON *      CLOUDY    28  23  80 E3        30.21F
LE MARS *      CLOUDY    27  23  86 S7        30.23F WCI  19
ORANGE CITY *  CLOUDY    27  21  80 S5        30.21F WCI  21
SHELDON *      CLOUDY    23  21  93 MISG      30.21F
SIOUX CITY     CLOUDY    29  21  72 SE7       30.24F WCI  22
6HR MIN TEMP:  26; 6HR MAX TEMP:  29;

SPENCER        CLOUDY    23  17  78 SE6       30.24F WCI  16
6HR MIN TEMP:  18; 6HR MAX TEMP:  23;

STORM LAKE *   CLOUDY    23  21  93 S5        30.23F WCI  17
$$

IAZ055>058-069>071-079>083-090>094-181900-
   SOUTHWEST IOWA

CITY           SKY/WX    TMP DP  RH WIND       PRES   REMARKS
ATLANTIC *     CLOUDY    28  25  86 CALM      30.24F
AUDUBON *      PTSUNNY   27  19  74 SE3       30.23F
CLARINDA *     PTSUNNY   30  27  86 CALM      30.26F
COUNCIL BLFS * MIX PCPN  28  28 100 SE6       30.22F WCI  22
CRESTON *      CLOUDY    27  25  93 SE7       30.24F WCI  19
HARLAN  *      CLOUDY    28  27  93 S6        30.27F WCI  22
LAMONI         CLOUDY    27  24  89 CALM      30.24F
6HR MIN TEMP:  24; 6HR MAX TEMP:  27; 6HR PCP:  0.09;

RED OAK *      CLOUDY    28  27  93 SE3       30.25F
SHENANDOAH *   CLOUDY    30  27  86 SE6       30.26F FOG     WCI  24
$$

IAZ047>049-059>061-072>074-084-181900-
   CENTRAL IOWA

CITY           SKY/WX    TMP DP  RH WIND       PRES   REMARKS
AMES           CLOUDY    24  17  74 CALM      30.27F
6HR MIN TEMP:  20; 6HR MAX TEMP:  24;

ANKENY *       MOSUNNY   28  19  69 S5        30.27F WCI  23
CHARITON *     LGT SNOW  27  23  86 CALM      30.25F
DES MOINES     FLURRIES  29  18  63 S3        30.27F
6HR MIN TEMP:  23; 6HR MAX TEMP:  29; 6HR PCP: TRACE;

GRINNELL*      CLOUDY    25  19  80 CALM      30.26F
KNOXVILLE *    LGT SNOW  25  21  86 CALM      30.26F
MARSHALLTOWN   CLOUDY    22  18  85 CALM      30.26F
6HR MIN TEMP:  15; 6HR MAX TEMP:  22;

PELLA *        LGT SNOW  27  22  83 CALM      30.29F
PERRY *        CLOUDY    27  21  80 SE5       30.26F WCI  21
$$

IAZ004>006-015-016-023>025-035-036-181900-
   NORTH CENTRAL IOWA

CITY           SKY/WX    TMP DP  RH WIND       PRES   REMARKS
ALGONA *       CLOUDY    21  19  93 S5        30.25F WCI  15
CLARION *      MOSUNNY   23  21  93 S5        30.25F WCI  17
ESTHERVILLE    CLOUDY    20  17  88 S6        30.24F WCI  12
6HR MIN TEMP:  14; 6HR MAX TEMP:  20;

FORT DODGE *   PTSUNNY   23  18  80 S3        30.26F
MASON CITY     PTSUNNY   22  17  81 CALM      30.26F
6HR MIN TEMP:  17; 6HR MAX TEMP:  22;

FOREST CITY *  PTSUNNY   21  18  86 CALM      30.25F
IOWA FALLS *   PTSUNNY   23  18  81 CALM      30.27F
$$

IAZ007>011-017>019-026>030-037>042-050>054-066-181900-
   NORTHEAST IOWA

CITY           SKY/WX    TMP DP  RH WIND       PRES   REMARKS
CEDAR RAPIDS   CLOUDY    23  19  85 CALM      30.27F
6HR MIN TEMP:  13; 6HR MAX TEMP:  23;

CHARLES CITY * CLOUDY    19  16  86 NE5       30.27F WCI  13
CLINTON *      CLOUDY    23  18  80 CALM      30.30F
DECORAH *      CLOUDY    21  18  86 CALM      30.25F
DUBUQUE        MOSUNNY   22  17  81 NW3       30.25F
6HR MIN TEMP:  14; 6HR MAX TEMP:  22;

MONTICELLO *   SUNNY     23  18  80 CALM      30.28F
OELWEIN *      PTSUNNY   21  16  79 CALM      30.27F
WATERLOO       PTSUNNY   22  16  78 CALM      30.28F
6HR MIN TEMP:  10; 6HR MAX TEMP:  22;

$$

IAZ064-065-067-068-078-181900-
   EAST CENTRAL IOWA

CITY           SKY/WX    TMP DP  RH WIND       PRES   REMARKS
DAVENPORT      CLOUDY    24  18  77 W3        30.28F
6HR MIN TEMP:  16; 6HR MAX TEMP:  24;

IOWA CITY      CLOUDY    25  20  81 CALM      30.30F
6HR MIN TEMP:  17; 6HR MAX TEMP:  25;

MT. PLEASANT * CLOUDY    25  20  80 CALM      30.28F
MUSCATINE *    CLOUDY    28  19  69 CALM      30.30F
QUAD CITIES    CLOUDY    27  18  69 CALM      30.28F
6HR MIN TEMP:  20; 6HR MAX TEMP:  27;

$$

IAZ062-063-075>077-085>089-095>099-181900-
   SOUTHEAST IOWA

CITY           SKY/WX    TMP DP  RH WIND       PRES   REMARKS
BURLINGTON     CLOUDY    27  20  75 CALM      30.27F
6HR MIN TEMP:  23; 6HR MAX TEMP:  27; 6HR PCP: TRACE;

FAIRFIELD *    PTSUNNY   25  21  86 CALM      30.28F
FORT MADISON * CLOUDY    27  25  93 CALM      30.28F
KEOKUK *       CLOUDY    27  23  86 CALM      30.27F
OSKALOOSA *    LGT SNOW  25  21  86 CALM      30.28F
CENTERVILLE *  FLURRIES  27  25  93 E3        30.26F
OTTUMWA        LGT SNOW  26  21  81 E3        30.27F
6HR MIN TEMP:  22; 6HR MAX TEMP:  26; 6HR PCP:  0.03;

WASHINGTON *   PTSUNNY   27  23  86 CALM      30.28F
$$

ABBREVIATIONS USED IN REMARKS
   TC - TEMPERATURES IN CELSIUS
  WCI - WIND CHILL INDEX
   HX - HEAT INDEX
  VSB - VISIBILITY
$$




USA.gov is the U.S. government's official web portal to all federal, state and local government web resources and services.